Wind_Speed
30 29 28 28 27 27 26 24 22 21 20 19 18 17 16 15 13 12 11 10 10 10 9 7 7 6 6 6 5 5 4 4 4 4 4 5 5 6 6 6 6 6
31 29 29 28 28 27 26 24 23 21 20 19 18 17 16 14 13 13 12 12 11 10 8 7 6 5 5 6 6 6 6 6 5 5 5 6 6 7 8 7 7 7
31 30 30 29 28 28 26 24 22 20 19 18 18 17 16 14 13 13 13 12 11 9 8 8 7 6 6 7 7 7 8 9 8 8 8 7 7 8 10 9 9 9
33 32 31 30 29 27 25 24 22 19 19 19 19 18 16 14 14 14 14 13 11 10 9 9 9 9 9 9 9 10 10 11 10 10 11 10 10 10 11 11 11 11
35 34 33 31 29 27 25 23 21 19 19 20 19 18 16 15 15 15 15 14 13 12 11 11 10 10 10 11 11 12 12 12 11 11 12 12 12 12 12 11 12 12
35 34 33 31 29 27 25 23 21 20 20 20 19 18 17 17 17 17 17 16 15 14 13 12 12 11 11 12 12 12 13 13 12 12 12 13 13 14 13 12 13 13
34 33 32 31 29 27 25 22 20 20 20 20 19 19 18 18 19 19 18 18 16 16 15 14 14 13 13 13 12 13 13 14 14 13 13 14 15 15 15 15 15 15
36 34 33 31 29 27 24 22 21 20 20 20 20 20 19 19 20 20 20 19 18 17 16 15 15 15 15 15 15 15 15 15 14 14 14 15 16 17 17 17 17 18
37 36 35 33 30 28 25 23 22 20 20 21 21 20 20 20 20 21 21 21 20 19 18 18 18 17 17 17 17 18 17 17 15 14 14 15 16 18 18 18 18 19
38 37 37 35 33 30 27 25 23 21 21 21 21 21 22 21 21 22 23 22 21 21 20 20 19 19 19 19 20 20 20 19 18 16 15 16 17 17 17 17 18 18
39 38 38 37 34 31 29 26 24 22 22 22 23 23 23 22 22 23 24 24 23 22 22 21 21 20 21 21 21 21 21 20 20 19 18 17 17 17 16 17 17 18
39 39 38 37 34 31 29 27 25 23 23 23 24 24 23 23 23 24 26 26 24 23 23 23 22 21 21 21 21 20 19 19 20 21 20 19 18 18 18 18 18 18
38 32 30 31 32 30 28 27 26 25 24 24 24 24 24 24 24 26 27 26 24 23 23 22 21 20 20 19 18 17 16 17 18 20 21 20 20 20 20 19 19 18
23 19 20 24 28 29 28 28 28 26 25 25 24 25 25 26 27 27 26 24 23 22 21 20 19 19 18 17 15 13 14 16 17 18 19 20 20 20 20 19 19 18
21 20 23 26 28 28 28 29 30 28 26 26 25 26 26 27 29 27 24 23 22 22 20 19 18 18 18 16 13 13 13 14 15 17 18 18 18 18 18 18 18 19
24 26 29 32 31 30 30 32 31 29 28 27 28 29 28 28 28 26 24 23 23 22 21 21 20 20 19 17 15 14 13 14 15 16 17 17 18 17 18 18 19 19
29 30 33 35 32 30 32 33 33 32 30 29 31 32 30 27 28 27 25 24 24 23 24 23 22 22 21 19 16 15 15 16 16 17 18 18 19 18 19 20 20 21
32 35 35 31 30 32 35 34 34 34 33 33 34 34 31 28 27 28 27 26 25 26 26 24 23 22 21 20 18 17 18 18 18 19 20 20 20 20 21 22 23 23
33 33 31 30 31 32 33 34 35 35 35 36 37 35 32 29 27 28 28 27 27 28 28 26 24 23 22 20 20 20 20 20 21 21 22 22 22 22 22 24 25 24
33 33 35 37 33 30 32 35 35 34 35 36 35 33 31 30 29 29 29 28 28 30 30 28 26 24 22 21 21 21 21 21 21 22 23 24 24 23 24 25 24 23
38 40 42 40 34 32 34 34 33 33 34 33 32 31 31 31 30 29 29 29 30 31 31 30 28 26 23 21 20 21 21 21 21 22 23 24 24 25 25 25 23 22
40 43 44 41 34 31 32 32 32 33 33 31 31 31 31 31 30 29 30 31 31 32 32 32 30 27 24 22 21 20 21 21 22 22 22 24 25 26 26 25 23 20
41 43 42 36 30 28 31 33 34 33 32 30 30 30 31 31 30 30 30 31 31 32 33 33 31 28 25 23 22 22 22 22 23 23 23 23 24 26 27 26 22 17
39 38 35 30 28 30 33 35 34 32 30 29 29 30 31 30 30 29 29 30 30 30 31 32 31 28 25 24 23 23 23 23 23 24 23 23 25 26 25 19 13 12
35 35 35 35 35 36 35 35 34 31 28 28 29 30 30 30 29 28 28 30 30 29 29 30 30 29 26 24 25 24 24 24 24 23 23 25 26 21 14 10 9 11
36 39 40 39 38 36 34 34 33 30 27 28 29 30 29 28 26 25 27 28 28 28 28 27 27 27 24 24 24 24 24 24 22 21 23 24 19 10 7 12 16 17
Wind_Direction
219 220 221 220 219 219 218 217 217 217 218 218 219 221 222 228 233 228 224 229 244 255 250 242 240 236 232 233 239 245 248 253 263 275 283 284 278 266 260 260 262 263
219 219 219 219 218 217 218 219 219 219 221 222 222 223 226 231 233 229 229 235 245 248 237 231 233 232 229 226 233 243 247 255 263 273 281 285 281 268 261 261 263 267
217 217 217 217 216 215 215 217 219 221 224 224 223 224 228 232 231 228 226 229 237 239 233 232 230 231 230 226 237 249 254 259 262 265 271 276 277 271 267 265 266 269
215 216 216 216 216 215 215 214 217 221 224 224 223 224 229 231 225 220 221 224 232 237 234 233 232 234 235 234 242 251 255 260 260 260 262 265 269 271 271 269 268 270
215 216 215 215 215 214 214 214 217 221 222 223 223 224 227 225 219 219 223 226 232 236 236 236 238 239 240 242 246 251 256 260 261 260 260 262 266 269 271 269 269 270
215 215 214 214 214 213 213 216 219 222 223 223 222 224 224 222 221 223 226 229 232 235 236 238 239 240 243 245 249 254 258 262 265 264 264 266 268 269 270 269 268 272
214 214 213 213 213 213 214 216 220 223 224 223 223 224 223 222 223 225 228 231 232 234 237 239 240 240 242 245 249 255 258 261 264 265 266 267 269 269 268 268 268 270
211 213 212 212 212 212 212 214 219 223 224 223 224 224 223 225 228 228 230 232 233 236 239 241 243 244 246 248 250 254 256 258 260 262 267 269 270 270 268 268 268 268
208 209 209 209 210 211 211 213 218 222 222 223 224 223 224 228 231 231 232 234 236 239 242 244 247 249 252 256 257 257 256 256 258 262 267 270 270 271 271 269 268 269
206 206 205 206 208 210 211 212 215 219 221 223 224 224 225 229 233 234 235 237 239 243 246 248 250 252 257 262 264 264 261 258 258 259 262 267 269 271 272 270 269 269
203 202 202 203 205 208 209 211 215 218 221 224 225 226 228 230 234 235 236 239 241 244 248 250 252 256 260 264 265 266 265 263 260 257 258 262 267 271 273 271 269 268
202 201 200 200 203 207 209 211 216 218 222 226 228 229 231 233 235 236 237 239 242 246 250 253 255 257 259 261 262 263 264 263 258 253 254 259 265 269 271 270 269 269
201 197 195 197 204 209 210 213 217 220 224 228 230 231 233 233 234 235 237 239 245 251 254 256 256 255 255 256 257 258 260 259 254 250 252 259 265 267 268 269 269 270
179 172 190 204 210 212 214 217 220 223 225 229 232 233 235 233 229 231 236 242 250 254 255 255 253 252 251 250 251 257 259 256 253 252 255 260 263 264 266 267 268 270
135 166 203 216 216 215 217 220 223 225 226 229 232 232 236 236 231 232 238 245 252 254 252 251 251 252 250 247 252 261 261 259 256 255 258 260 262 264 265 265 266 268
155 185 209 219 219 218 219 221 224 227 227 230 232 233 237 237 232 233 239 247 252 252 248 249 252 254 250 247 254 262 263 263 263 261 260 260 263 266 267 266 265 266
172 190 209 220 222 220 220 222 224 227 227 228 231 237 242 240 233 233 240 247 250 248 246 249 252 253 249 247 251 257 259 262 263 263 263 262 264 267 267 268 268 269
177 194 208 220 224 219 219 223 225 226 226 226 230 237 243 240 234 236 242 247 248 246 246 248 252 253 249 246 249 252 254 257 258 260 263 263 265 266 268 269 270 272
184 196 205 218 224 219 220 226 227 226 227 228 230 236 241 240 237 240 245 247 246 244 245 249 253 252 247 246 249 250 251 255 257 259 261 263 264 265 267 269 270 273
186 195 203 214 219 216 219 226 228 228 229 231 232 235 240 241 240 243 246 246 245 244 245 250 253 251 247 246 248 248 250 256 260 261 262 263 265 266 267 268 269 271
188 195 202 211 215 212 215 221 225 228 232 234 235 237 240 242 244 246 246 246 246 245 245 249 254 253 249 248 250 250 252 256 260 262 262 263 264 265 266 265 266 269
193 197 202 210 213 210 211 215 221 228 233 237 239 241 243 245 246 246 246 246 247 246 245 247 254 256 253 252 253 252 253 256 257 258 260 262 264 266 266 264 262 265
196 198 202 207 211 212 213 217 222 229 235 240 242 242 242 244 245 245 246 248 248 247 246 249 255 259 258 257 258 257 256 256 256 260 263 263 266 268 266 261 256 262
194 196 198 201 209 218 219 219 223 231 239 243 242 241 243 244 245 246 247 248 247 247 250 254 259 262 262 262 263 263 260 258 261 265 268 269 271 270 267 263 254 262
191 193 195 199 208 218 218 218 226 235 242 245 244 244 245 245 244 246 248 248 247 248 251 256 260 263 265 264 265 265 265 267 268 269 272 275 275 269 268 281 285 279
191 195 199 200 207 215 216 219 230 238 242 246 246 244 243 243 244 247 249 252 252 251 253 256 259 264 267 267 266 267 271 274 275 276 278 277 273 268 268 271 271 275
Height
803 805 807 808 810 811 813 815 817 818 819 820 822 823 824 825 826 826 827 828 829 829 829 829 829 829 830 830 830 830 831 831 831 831 831 831 831 831 831 831 831 831
801 803 805 806 808 809 811 813 815 816 818 819 820 821 822 823 824 825 826 827 827 828 828 828 828 828 828 828 829 829 830 830 830 830 830 830 830 830 830 830 830 830
799 800 802 804 805 807 809 811 813 814 816 817 818 820 821 821 822 823 824 825 825 826 826 827 827 827 827 827 828 828 828 829 829 829 829 829 829 829 829 830 830 830
796 797 799 801 803 805 807 809 811 813 814 816 817 818 819 820 821 822 822 823 824 824 825 825 825 825 826 826 826 827 827 827 827 828 828 828 828 828 828 829 829 829
792 794 796 798 801 803 806 807 809 811 813 814 815 817 818 818 819 820 821 821 822 823 823 824 824 824 824 825 825 825 825 826 826 826 826 826 827 827 827 827 827 827
790 792 794 797 799 802 804 806 808 810 812 813 814 815 816 817 818 818 819 820 820 821 821 822 822 822 823 823 823 823 824 824 825 825 825 825 825 826 826 826 826 826
789 792 794 796 798 801 803 805 807 809 810 811 812 814 815 815 816 816 817 818 818 819 819 820 820 821 821 821 821 822 822 823 823 823 823 823 824 824 824 825 825 824
784 788 791 794 797 799 801 804 806 807 808 810 811 812 814 814 814 815 816 816 817 817 817 818 818 819 819 819 819 820 820 821 821 821 821 821 822 822 822 823 823 822
779 783 788 791 794 797 799 801 803 805 806 808 809 811 812 812 813 814 815 815 815 816 816 816 816 817 817 817 817 818 818 818 819 819 819 819 820 820 820 821 821 820
776 779 783 787 790 793 796 798 801 802 804 805 806 808 809 810 811 812 814 814 814 814 814 814 815 815 815 815 815 815 815 816 816 817 817 817 818 818 818 819 818 818
773 775 778 782 786 789 793 796 798 800 801 802 803 805 806 808 809 811 812 812 812 812 812 812 812 812 813 813 813 813 813 813 814 814 815 815 815 816 816 816 816 816
769 771 774 779 785 789 791 794 796 798 799 799 801 803 804 806 807 808 809 809 810 810 810 810 810 810 810 810 811 811 811 811 811 811 812 812 813 813 814 814 814 814
766 773 779 784 788 790 791 793 795 796 797 797 799 801 802 803 804 805 806 807 807 807 808 808 807 807 808 808 809 809 809 809 809 809 810 810 810 811 811 811 811 811
770 782 791 793 792 791 791 792 794 794 795 795 797 798 799 800 800 801 803 804 805 805 805 806 805 805 806 807 807 808 808 807 807 807 807 808 808 808 808 809 809 809
776 786 792 793 791 789 789 791 792 793 793 794 795 795 795 797 797 799 800 801 802 803 803 804 803 803 804 805 806 806 805 805 805 805 805 805 805 805 806 806 806 806
778 784 786 785 785 785 787 789 791 791 792 792 793 792 792 794 795 796 797 798 799 800 801 801 801 801 802 803 803 803 803 803 803 803 803 803 802 803 803 803 803 803
774 778 778 779 780 782 785 787 788 789 789 790 790 790 791 792 793 793 794 795 796 797 798 798 798 799 800 800 801 800 800 800 800 800 800 800 800 800 800 800 800 800
767 771 775 780 781 781 783 785 785 785 786 786 786 788 790 790 791 791 792 793 794 794 795 795 795 796 797 798 798 798 798 797 797 798 798 798 797 797 797 797 797 797
765 771 776 779 779 780 783 784 784 783 783 783 783 785 788 789 789 789 789 790 791 791 792 792 792 793 794 795 795 795 795 795 795 795 795 795 794 794 794 794 794 794
764 769 770 770 772 776 780 781 781 781 780 781 782 784 785 786 786 786 787 788 788 789 789 789 789 790 791 792 792 792 793 793 792 792 792 791 791 791 791 791 791 792
757 760 761 762 766 769 772 775 777 778 778 779 780 781 782 783 783 784 784 785 786 786 787 786 786 787 788 789 789 789 790 790 789 789 788 788 788 787 787 788 789 790
751 753 755 759 763 766 767 769 772 773 774 777 778 779 780 780 781 781 782 782 783 784 784 784 783 784 785 786 786 786 787 786 786 785 784 784 784 784 784 785 786 788
745 749 753 758 764 766 766 766 768 769 771 773 775 776 776 777 777 778 779 780 780 782 782 782 781 781 782 782 783 783 783 783 782 781 781 781 780 781 781 782 783 785
743 747 752 757 763 765 764 764 765 766 767 770 772 773 773 774 774 775 776 776 777 779 780 779 779 779 780 780 780 780 780 780 779 778 778 778 778 778 779 780 782 783
741 745 747 752 757 760 760 761 763 763 764 767 769 770 770 771 772 772 772 773 774 775 776 775 775 776 777 777 777 777 777 776 776 775 775 775 776 777 778 780 782 782
738 740 743 746 750 754 758 761 762 761 762 765 766 767 768 768 769 769 769 770 771 772 772 772 772 773 774 774 773 774 773 772 772 773 773 773 774 774 775 778 780 780